UAE378 OMDB-VTSP

Flight info

Callsign UAE378
Flight time N/A
Altitude 37000
Route IVURO M428 MUNGA A777 VAXIM P307 PARAR N571 RUPTI L645 UBNEN UBNEN1D
Aircraft B77W/H-SDE1E2E3FGHIJ2J3J4J5M1RWXY/LB1D1

Departure

Time 2026-04-22 11:09
Airport Dubai International Airport (OMDB)

Arrival

Time N/A
Airport Phuket International Airport (VTSP)
Time Latitude Longitude Altitude Speed Heading
2026-04-22 10:31 25.24889 55.35897 48 ft 0 kts 31°
2026-04-22 10:49 25.24887 55.35895 48 ft 2 kts 31°
2026-04-22 10:50 25.24871 55.35884 48 ft 3 kts 33°
2026-04-22 10:50 25.24854 55.35872 48 ft 2 kts 33°
2026-04-22 10:50 25.24841 55.35863 48 ft 3 kts 25°
2026-04-22 10:50 25.24826 55.35856 48 ft 3 kts
2026-04-22 10:51 25.24813 55.35856 48 ft 3 kts 329°
2026-04-22 10:51 25.24801 55.35866 48 ft 3 kts 304°
2026-04-22 10:51 25.24790 55.35885 48 ft 3 kts 299°
2026-04-22 10:51 25.24781 55.35902 48 ft 2 kts 301°
2026-04-22 10:52 25.24776 55.35911 48 ft 0 kts 301°
2026-04-22 10:53 25.24777 55.35910 48 ft 3 kts 301°
2026-04-22 10:53 25.24798 55.35872 48 ft 8 kts 301°
2026-04-22 10:53 25.24832 55.35810 48 ft 11 kts 301°
2026-04-22 10:53 25.24877 55.35732 48 ft 13 kts 304°
2026-04-22 10:54 25.24942 55.35634 48 ft 19 kts 306°
2026-04-22 10:54 25.25011 55.35511 48 ft 19 kts 299°
2026-04-22 10:54 25.25076 55.35390 48 ft 18 kts 301°
2026-04-22 10:54 25.25141 55.35279 48 ft 17 kts 306°
2026-04-22 10:55 25.25210 55.35179 48 ft 16 kts 303°
2026-04-22 10:55 25.25266 55.35078 48 ft 15 kts 302°
2026-04-22 10:55 25.25318 55.34984 48 ft 14 kts 302°
2026-04-22 10:55 25.25368 55.34909 48 ft 11 kts 325°
2026-04-22 10:56 25.25441 55.34893 48 ft 11 kts 10°
2026-04-22 10:56 25.25506 55.34928 48 ft 10 kts 31°
2026-04-22 10:56 25.25553 55.34960 48 ft 8 kts 31°
2026-04-22 10:56 25.25597 55.34989 48 ft 7 kts 31°
2026-04-22 10:57 25.25639 55.35017 48 ft 7 kts 31°
2026-04-22 10:57 25.25665 55.35058 48 ft 7 kts 86°
2026-04-22 10:57 25.25657 55.35110 48 ft 7 kts 90°
2026-04-22 10:57 25.25676 55.35154 48 ft 7 kts 41°
2026-04-22 10:58 25.25727 55.35190 48 ft 10 kts 31°
2026-04-22 10:58 25.25786 55.35229 48 ft 10 kts 31°
2026-04-22 10:58 25.25842 55.35266 48 ft 9 kts 31°
2026-04-22 10:58 25.25895 55.35302 48 ft 9 kts 31°
2026-04-22 10:59 25.25947 55.35337 48 ft 8 kts 31°
2026-04-22 10:59 25.25996 55.35370 48 ft 8 kts 31°
2026-04-22 10:59 25.26033 55.35411 48 ft 8 kts 77°
2026-04-22 10:59 25.26020 55.35470 48 ft 8 kts 116°
2026-04-22 11:00 25.25987 55.35536 48 ft 16 kts 119°
2026-04-22 11:00 25.25930 55.35638 48 ft 15 kts 122°
2026-04-22 11:00 25.25876 55.35734 48 ft 15 kts 121°
2026-04-22 11:00 25.25798 55.35876 48 ft 24 kts 121°
2026-04-22 11:01 25.25707 55.36038 48 ft 27 kts 121°
2026-04-22 11:01 25.25616 55.36203 48 ft 24 kts 122°
2026-04-22 11:01 25.25532 55.36355 48 ft 22 kts 122°
2026-04-22 11:01 25.25453 55.36498 48 ft 21 kts 121°
2026-04-22 11:02 25.25374 55.36642 48 ft 26 kts 122°
2026-04-22 11:02 25.25255 55.36858 48 ft 32 kts 122°
2026-04-22 11:02 25.25141 55.37061 48 ft 32 kts 122°
2026-04-22 11:02 25.25027 55.37270 48 ft 33 kts 121°
2026-04-22 11:03 25.24918 55.37466 48 ft 28 kts 121°
2026-04-22 11:03 25.24821 55.37642 48 ft 23 kts 122°
2026-04-22 11:03 25.24763 55.37745 48 ft 3 kts 121°
2026-04-22 11:03 25.24754 55.37762 48 ft 2 kts 121°
2026-04-22 11:04 25.24741 55.37786 48 ft 7 kts 121°
2026-04-22 11:04 25.24715 55.37833 48 ft 6 kts 122°
2026-04-22 11:04 25.24698 55.37863 48 ft 0 kts 122°
2026-04-22 11:05 25.24690 55.37877 48 ft 3 kts 122°
2026-04-22 11:05 25.24679 55.37898 48 ft 3 kts 115°
2026-04-22 11:06 25.24674 55.37921 48 ft 3 kts 97°
2026-04-22 11:06 25.24681 55.37959 48 ft 6 kts 59°
2026-04-22 11:06 25.24717 55.37988 48 ft 7 kts 31°
2026-04-22 11:06 25.24776 55.38025 48 ft 11 kts 21°
2026-04-22 11:07 25.24822 55.38007 48 ft 7 kts 300°
2026-04-22 11:07 25.24828 55.37996 48 ft 0 kts 298°
2026-04-22 11:08 25.24906 55.37849 48 ft 55 kts 303°
2026-04-22 11:08 25.25236 55.37258 48 ft 123 kts 301°
2026-04-22 11:08 25.25786 55.36266 51 ft 179 kts 303°
2026-04-22 11:08 25.26438 55.35049 500 ft 190 kts 303°
2026-04-22 11:09 25.27128 55.33751 1159 ft 198 kts 302°
2026-04-22 11:09 25.27886 55.32400 1604 ft 218 kts 302°
2026-04-22 11:09 25.28747 55.30943 2068 ft 232 kts 308°
2026-04-22 11:09 25.30032 55.29789 2419 ft 252 kts 332°
2026-04-22 11:10 25.31750 55.29315 3285 ft 252 kts 349°
2026-04-22 11:10 25.33477 55.29271 4287 ft 249 kts 359°
2026-04-22 11:10 25.35190 55.29504 5251 ft 245 kts
2026-04-22 11:10 25.36875 55.29673 5999 ft 248 kts 360°
2026-04-22 11:11 25.38611 55.29813 6718 ft 255 kts
2026-04-22 11:11 25.40287 55.30601 7355 ft 267 kts 30°
2026-04-22 11:11 25.41660 55.32012 7922 ft 281 kts 44°
2026-04-22 11:11 25.42952 55.33693 8462 ft 293 kts 49°
2026-04-22 11:12 25.44175 55.35562 9080 ft 303 kts 54°
2026-04-22 11:12 25.45415 55.37459 9737 ft 309 kts 50°
2026-04-22 11:12 25.46788 55.39335 10393 ft 317 kts 48°
2026-04-22 11:12 25.48231 55.41246 10920 ft 331 kts 47°
2026-04-22 11:13 25.49751 55.43269 11309 ft 350 kts 49°
2026-04-22 11:13 25.51142 55.45579 11588 ft 373 kts 62°
2026-04-22 11:13 25.51957 55.48378 11975 ft 391 kts 77°
2026-04-22 11:13 25.52174 55.51435 12473 ft 405 kts 92°
2026-04-22 11:14 25.51786 55.54555 13079 ft 414 kts 103°
2026-04-22 11:14 25.50913 55.57614 13767 ft 418 kts 110°
2026-04-22 11:14 25.49954 55.60690 14460 ft 424 kts 110°
2026-04-22 11:14 25.48984 55.63744 15144 ft 430 kts 110°
2026-04-22 11:15 25.47984 55.66887 15807 ft 435 kts 110°
2026-04-22 11:15 25.46971 55.70075 16470 ft 441 kts 110°
2026-04-22 11:15 25.45947 55.73301 17119 ft 446 kts 110°
2026-04-22 11:15 25.44913 55.76556 17757 ft 450 kts 111°
2026-04-22 11:16 25.43874 55.79830 18390 ft 454 kts 111°
2026-04-22 11:16 25.42818 55.83153 18962 ft 460 kts 111°
2026-04-22 11:16 25.41749 55.86514 19542 ft 464 kts 111°
2026-04-22 11:16 25.40684 55.89861 20123 ft 468 kts 111°
2026-04-22 11:17 25.39600 55.93267 20721 ft 471 kts 111°
2026-04-22 11:17 25.38509 55.96689 21254 ft 475 kts 111°
2026-04-22 11:17 25.37404 56.00153 21781 ft 479 kts 111°
2026-04-22 11:17 25.36290 56.03641 22293 ft 482 kts 111°
2026-04-22 11:18 25.35164 56.07165 22785 ft 486 kts 111°
2026-04-22 11:18 25.34035 56.10695 23262 ft 490 kts 111°
2026-04-22 11:18 25.32892 56.14265 23728 ft 493 kts 111°
2026-04-22 11:18 25.31740 56.17860 24179 ft 496 kts 111°
2026-04-22 11:19 25.30584 56.21463 24620 ft 499 kts 111°
2026-04-22 11:19 25.29439 56.25034 24999 ft 503 kts 111°
2026-04-22 11:19 25.28271 56.28720 25278 ft 510 kts 111°
2026-04-22 11:19 25.27081 56.32431 25659 ft 513 kts 111°
2026-04-22 11:20 25.25880 56.36153 26004 ft 517 kts 111°
2026-04-22 11:20 25.24665 56.39908 26374 ft 521 kts 111°
2026-04-22 11:20 25.23435 56.43705 26716 ft 525 kts 111°
2026-04-22 11:20 25.22215 56.47467 27052 ft 528 kts 111°
2026-04-22 11:21 25.20956 56.51352 27374 ft 533 kts 111°
2026-04-22 11:21 25.19705 56.55206 27689 ft 536 kts 111°
2026-04-22 11:21 25.18453 56.59063 28001 ft 540 kts 111°
2026-04-22 11:21 25.17105 56.62943 28340 ft 542 kts 114°
2026-04-22 11:22 25.15639 56.66805 28621 ft 546 kts 115°
2026-04-22 11:22 25.14164 56.70538 28883 ft 549 kts 115°
2026-04-22 11:22 25.12589 56.74546 29130 ft 553 kts 115°
2026-04-22 11:22 25.11076 56.78455 29449 ft 555 kts 114°
2026-04-22 11:23 25.09586 56.82344 29842 ft 556 kts 114°
2026-04-22 11:23 25.08087 56.86275 30222 ft 557 kts 114°
2026-04-22 11:23 25.06580 56.90226 30605 ft 558 kts 114°
2026-04-22 11:23 25.05059 56.94225 30989 ft 558 kts 113°
2026-04-22 11:24 25.03598 56.98120 31369 ft 559 kts 113°
2026-04-22 11:24 25.02101 57.02089 31768 ft 558 kts 113°
2026-04-22 11:24 25.00606 57.06033 32344 ft 554 kts 113°
2026-04-22 11:24 24.99119 57.09944 32827 ft 551 kts 113°
2026-04-22 11:25 24.97637 57.13834 33236 ft 550 kts 114°
2026-04-22 11:25 24.96160 57.17707 33676 ft 547 kts 114°
2026-04-22 11:25 24.94682 57.21578 34100 ft 545 kts 114°
2026-04-22 11:25 24.93214 57.25418 34481 ft 544 kts 114°
2026-04-22 11:26 24.91746 57.29256 34872 ft 542 kts 114°
2026-04-22 11:26 24.90301 57.33030 35243 ft 540 kts 114°
2026-04-22 11:26 24.88831 57.36864 35609 ft 538 kts 114°
2026-04-22 11:26 24.87389 57.40623 35958 ft 536 kts 114°
2026-04-22 11:27 24.85947 57.44380 36287 ft 534 kts 114°
2026-04-22 11:27 24.84511 57.48154 36621 ft 532 kts 114°
2026-04-22 11:27 24.83066 57.51930 36755 ft 533 kts 114°
2026-04-22 11:28 24.80160 57.59463 36739 ft 532 kts 114°
2026-04-22 11:28 24.77263 57.66948 36744 ft 531 kts 113°
2026-04-22 11:29 24.74389 57.74370 36749 ft 531 kts 113°
2026-04-22 11:29 24.71609 57.81910 36748 ft 532 kts 110°
2026-04-22 11:30 24.69252 57.89632 36748 ft 532 kts 108°